Tracking 18871 objects as of 13-Dec-2017
HD Live streaming from Space Station
objects crossing your sky now

SL-8 R/B

Track SL-8 R/B now!
10-day predictions


NORAD ID: 13917
Int'l Code: 1983-021B
Perigee: 960.4 km
Apogee: 1,004.2 km
Inclination: 82.9 °
Period: 104.6 minutes
Semi major axis: 7353 km
RCS: 4.8067 m2 (large)
Launch date: March 24, 1983
Source: Commonwealth of Independent States (former USSR) (CIS)
Launch site: PLESETSK MISSILE AND SPACE COMPLEX (PKMTR)

Note: This is a ROCKET BODY
aabbcc
Your satellite tracking list
Your tracking list is empty




NASA's NSSDC Master Catalog

Two Line Element Set (TLE):
1 13917U 83021B   17346.86547913  .00000090  00000-0  74966-4 0  9994
2 13917  82.9434 114.0637 0029764 109.8639   0.0964 13.76829178744173
Source of the keplerian elements: AFSPC